sat.trackr.live / text

‹ back to catalog

STARLINK-35542

NORAD 66064 · 2025-235G

PAYLOAD ACTIVE UNKNOWN

§ Identity

Operator
Country
US
Launch date
2025-10-19
Launch site
AFETR
Launch vehicle
Mass (kg)
RCS (m²)

Purposes: comms

External: N2YO · Heavens-Above · Gunter

§ Orbital elements

Epoch: 2026-05-25T00:10:38.666208Z

Period
94.11 min
Inclination
53.1587°
Eccentricity
0.0001151
Mean motion
15.30197900 rev/d
Perigee alt
474.4 km
Apogee alt
476.0 km
Semi-major
6,853.4 km
B*
5.0863e-4
RAAN
250.9575°
Arg perigee
89.9814°
Mean anomaly
270.1318°
Rev number
3,460

§ Raw data

STARLINK-355421 66064U 25235G   26145.00739197  .00014734  00000+0  50863-3 0  99962 66064  53.1587 250.9575 0001151  89.9814 270.1318 15.30197900 34603

JSON: /api/v1/satellites/66064 · /tle

For live sub-satellite position, see the globe view (requires WebGL).

§ Visibility from observer

Set your observer location to see the next 7 days of passes ≥ 10°. The values pass through the URL so the page stays shareable.

No JS? Fill the form by hand. The geolocation button needs JavaScript.